FW0683 Weather Reports


time (UTC)temp
F
wind
direction
speed
knots
gust
knots
rain 1hr
in
rain 24hr
in
rain mn
in
humidity
%
barometer
mb
20260509161550 47 127 0.0 0.0 0.05 0.07 0.07 86 1019.1
20260509160050 47 127 0.0 0.9 0.04 0.05 0.05 86 1019.2
20260509154550 48 125 0.0 0.0 0.04 0.04 0.04 84 1019.3
20260509153048 49 106 0.0 0.0 0.03 0.03 0.03 84 1019.4
20260509151553 49 108 0.0 0.0 0.02 0.02 0.02 81 1019.5
20260509150050 49 84 0.0 0.0 0.01 0.01 0.01 75 1019.5
20260509144546 50 33 0.0 0.0 0.00 0.00 0.00 67 1019.3
20260509143051 52 113 0.0 0.0 0.00 0.00 0.00 63 1019.1
20260509141558 53 131 0.0 0.9 0.00 0.00 0.00 58 1019.0
20260509140057 53 150 0.0 6.1 0.00 0.00 0.00 57 1018.9
20260509134543 53 100 0.0 0.0 0.00 0.00 0.00 57 1019.0
20260509133041 52 115 0.0 0.0 0.00 0.00 0.00 63 1019.0
20260509131540 51 115 0.0 0.0 0.00 0.00 0.00 66 1018.9
20260509130042 51 103 0.0 0.0 0.00 0.00 0.00 66 1019.0
20260509124539 51 89 0.0 0.0 0.00 0.00 0.00 63 1019.2
20260509123045 50 6 0.0 0.0 0.00 0.00 0.00 63 1019.1
20260509121531 49 86 0.0 0.0 0.00 0.00 0.00 64 1019.1
20260509120027 48 328 0.0 0.0 0.00 0.00 0.00 71 1019.1
20260509114525 46 328 0.0 0.0 0.00 0.00 0.00 73 1019.2
20260509113017 44 328 0.0 0.0 0.00 0.00 0.00 77 1019.3
20260509111519 41 239 0.0 0.0 0.00 0.00 0.00 82 1019.4
20260509110009 40 238 0.0 0.0 0.00 0.00 0.00 87 1019.4
20260509104523 38 238 0.0 0.0 0.00 0.00 0.00 91 1019.5
20260509103005 36 238 0.0 0.0 0.00 0.00 0.00 92 1019.1
20260509101504 34 238 0.0 0.0 0.00 0.00 0.00 92 1018.9
20260509100003 33 238 0.0 0.0 0.00 0.00 0.00 91 1018.7
20260509094605 33 238 0.0 0.0 0.00 0.00 0.00 91 1018.4
20260509093105 32 238 0.0 0.0 0.00 0.00 0.00 90 1018.5
20260509091608 33 238 0.0 0.0 0.00 0.00 0.00 90 1018.4
20260509090055 33 238 0.0 0.0 0.00 0.00 0.00 89 1018.0
20260509084553 33 238 0.0 0.0 0.00 0.00 0.00 88 1017.9
20260509083051 34 238 0.0 0.0 0.00 0.00 0.00 88 1017.9
20260509081558 34 238 0.0 0.0 0.00 0.00 0.00 87 1018.1
20260509080052 34 238 0.0 0.0 0.00 0.00 0.00 87 1017.9
20260509074548 35 238 0.0 0.0 0.00 0.00 0.00 87 1017.9
20260509073049 35 238 0.0 0.0 0.00 0.00 0.00 87 1017.8
20260509071548 35 238 0.0 0.0 0.00 0.00 0.00 88 1018.0
20260509070045 35 238 0.0 0.0 0.00 0.00 0.00 86 1017.9
20260509064543 35 238 0.0 0.0 0.00 0.00 0.00 85 1017.9
20260509063041 36 238 0.0 0.0 0.00 0.00 0.00 85 1017.9
20260509061552 36 238 0.0 0.0 0.00 0.00 0.00 84 1017.8
20260509060037 36 238 0.0 0.0 0.00 0.00 0.00 83 1017.8
20260509054543 37 238 0.0 0.0 0.00 0.00 0.00 83 1017.8
20260509053051 37 238 0.0 0.0 0.00 0.00 0.00 82 1017.8
20260509051534 37 238 0.0 0.0 0.00 0.00 0.00 81 1017.7
20260509050032 38 238 0.0 0.0 0.00 0.00 0.00 80 1017.7
20260509044532 38 238 0.0 0.0 0.00 0.00 0.00 77 1017.6
20260509043024 39 238 0.0 0.0 0.00 0.00 0.00 76 1017.5
20260509041523 39 238 0.0 0.0 0.00 0.00 0.00 76 1017.5
20260509040020 40 238 0.0 0.0 0.00 0.00 0.00 75 1017.5
20260509034519 40 238 0.0 0.0 0.00 0.00 0.00 74 1017.4
20260509033018 40 238 0.0 0.0 0.00 0.00 0.00 71 1017.2
20260509031516 41 238 0.0 0.0 0.00 0.00 0.00 69 1017.0
20260509030016 42 238 0.0 0.0 0.00 0.00 0.00 67 1016.9
20260509024518 43 238 0.0 0.0 0.00 0.00 0.00 65 1016.9
20260509023014 44 238 0.0 0.0 0.00 0.00 0.00 62 1016.7
20260509021512 45 238 0.0 0.0 0.00 0.00 0.00 61 1016.5
20260509020011 45 238 0.0 0.0 0.00 0.00 0.00 60 1016.3
20260509014510 45 238 0.0 0.0 0.00 0.00 0.00 61 1016.2
20260509013008 46 238 0.0 0.0 0.00 0.00 0.00 60 1015.9
20260509011504 46 238 0.0 0.0 0.00 0.00 0.00 59 1015.4
20260509010003 46 237 0.0 0.0 0.00 0.00 0.00 59 1015.0
20260509004500 46 237 0.0 0.0 0.00 0.00 0.00 56 1014.7
20260509003108 47 237 0.0 0.0 0.00 0.00 0.00 52 1014.4
20260509001557 48 237 0.0 0.0 0.00 0.00 0.00 49 1014.2
20260509000055 50 237 0.0 0.0 0.00 0.00 0.00 45 1013.9
20260508234556 52 237 0.0 0.0 0.00 0.00 0.00 43 1013.7
20260508233102 54 237 0.0 0.0 0.00 0.00 0.00 40 1013.5
20260508231632 55 314 0.0 0.9 0.00 0.00 0.00 36 1013.3
20260508230100 56 303 0.0 0.0 0.00 0.00 0.00 35 1013.2
20260508224559 57 259 0.0 0.0 0.00 0.00 0.00 34 1013.1
20260508223050 57 45 0.0 0.0 0.00 0.00 0.00 33 1013.1
20260508221550 58 58 0.0 2.6 0.00 0.00 0.00 33 1012.9
20260508220049 59 248 0.0 0.9 0.00 0.00 0.00 31 1012.9
20260508214619 58 278 0.0 4.3 0.00 0.00 0.00 34 1012.8
20260508213051 59 281 0.0 4.3 0.00 0.00 0.00 30 1012.7
20260508211549 60 261 0.0 0.9 0.00 0.00 0.00 32 1012.7
20260508210053 60 282 0.0 7.0 0.00 0.00 0.00 31 1012.5
20260508204548 60 296 0.0 6.1 0.00 0.00 0.00 31 1012.4
20260508203102 61 241 0.0 2.6 0.00 0.00 0.00 30 1012.3
20260508201549 60 310 0.0 4.3 0.00 0.00 0.00 28 1012.0
20260508200049 61 166 0.0 3.5 0.00 0.00 0.00 32 1012.0
20260508194553 60 4 0.0 7.8 0.00 0.00 0.00 29 1012.1
20260508193056 60 294 1.7 12.2 0.00 0.00 0.00 30 1012.0
20260508191547 60 248 0.0 2.6 0.00 0.00 0.00 30 1011.9
20260508190045 62 252 0.0 0.9 0.00 0.00 0.00 28 1011.8
20260508184543 61 281 0.0 7.0 0.00 0.00 0.00 31 1012.0
20260508183041 61 280 0.0 5.2 0.00 0.00 0.00 29 1011.8
20260508181543 60 122 0.0 9.6 0.00 0.00 0.00 30 1011.9
20260508180038 60 233 0.0 6.1 0.00 0.00 0.00 32 1012.0
20260508174539 59 259 0.0 4.3 0.00 0.00 0.00 33 1011.9
20260508173037 59 286 0.0 5.2 0.00 0.00 0.00 33 1011.9
20260508171538 58 289 0.0 6.1 0.00 0.00 0.00 33 1012.1
20260508170037 59 23 0.0 4.3 0.00 0.00 0.00 31 1012.0
20260508164536 59 278 0.0 7.8 0.00 0.00 0.00 33 1012.0
20260508163038 58 290 0.0 7.0 0.00 0.00 0.00 33 1012.0